HB9SZU-6 Weather Reports


time (UTC)temp
F
wind
direction
speed
knots
gust
knots
rain 1hr
in
rain 24hr
in
rain mn
in
humidity
%
barometer
mb
20260507041252 50 0.0 0.0 0.00 0.00 0.00 82 1018.2
20260507035752 50 0.0 0.0 0.00 0.00 0.00 82 1018.1
20260507034252 51 0.0 0.0 0.00 0.00 0.00 82 1018.3
20260507031252 51 0.0 0.0 0.00 0.00 0.00 82 1018.1
20260507025752 52 0.0 0.0 0.00 0.00 0.00 82 1018.2
20260507024252 52 0.0 0.0 0.00 0.00 0.00 82 1018.3
20260507022753 52 0.0 0.0 0.00 0.00 0.00 82 1018.3
20260507021253 52 0.0 0.0 0.00 0.00 0.00 82 1018.2
20260507015752 52 0.0 0.0 0.00 0.00 0.00 82 1018.0
20260507014252 53 0.0 0.0 0.00 0.00 0.00 82 1017.5
20260507012752 53 0.0 0.0 0.00 0.00 0.00 82 1017.6
20260507011252 53 0.0 0.0 0.00 0.00 0.00 82 1017.7
20260507005753 53 0.0 0.0 0.00 0.00 0.00 82 1017.6
20260507004252 53 0.0 0.0 0.00 0.00 0.00 82 1017.5
20260507002753 53 0.0 0.0 0.00 0.00 0.00 82 1017.5
20260507001252 53 0.0 0.0 0.00 0.00 0.00 82 1017.4
20260506235752 53 0.0 0.0 0.00 0.00 0.00 82 1017.4
20260506234252 53 0.0 0.0 0.00 0.00 0.00 82 1017.5
20260506232752 53 0.0 0.0 0.00 0.00 0.00 82 1017.5
20260506231252 54 0.0 0.0 0.00 0.00 0.00 82 1017.5
20260506225752 54 0.0 0.0 0.00 0.00 0.00 81 1017.5
20260506224252 54 0.0 0.0 0.00 0.00 0.00 81 1017.6
20260506222752 54 0.0 0.0 0.00 0.00 0.00 81 1017.6
20260506221252 54 0.0 0.0 0.01 0.00 0.00 81 1017.8
20260506215753 54 0.0 0.0 0.02 0.00 0.19 81 1017.2
20260506214252 54 0.0 0.0 0.02 0.00 0.19 81 1017.3
20260506212752 54 0.0 0.0 0.02 0.00 0.19 81 1017.0
20260506211252 54 0.0 0.0 0.01 0.00 0.18 81 1017.4
20260506205752 54 0.0 0.0 0.00 0.00 0.17 80 1017.4
20260506204252 55 0.0 0.0 0.00 0.00 0.17 80 1016.5
20260506202752 55 0.0 0.0 0.00 0.00 0.17 80 1016.5
20260506201252 55 0.0 0.0 0.00 0.00 0.17 80 1016.5
20260506195752 55 0.0 0.0 0.00 0.00 0.17 80 1016.5
20260506194252 55 0.0 0.0 0.01 0.00 0.17 80 1016.3
20260506192752 55 0.0 0.0 0.00 0.00 0.16 79 1016.1
20260506191252 55 0.0 0.0 0.00 0.00 0.16 79 1015.7
20260506185753 55 0.0 0.0 0.00 0.00 0.16 79 1015.4
20260506184252 56 0.0 0.0 0.00 0.00 0.16 79 1015.0
20260506182753 56 0.0 0.0 0.00 0.00 0.16 79 1014.7
20260506181252 56 0.0 0.0 0.00 0.00 0.16 78 1014.3
20260506175753 56 0.0 0.0 0.00 0.00 0.16 78 1014.2
20260506174253 57 0.0 0.0 0.00 0.00 0.15 79 1014.2
20260506172752 57 0.0 0.0 0.00 0.00 0.15 79 1014.1
20260506171252 57 0.0 0.0 0.00 0.00 0.15 80 1014.0
20260506165752 57 0.0 0.0 0.00 0.00 0.15 80 1014.1
20260506164252 58 0.0 0.0 0.00 0.00 0.15 80 1014.1
20260506162752 58 0.0 0.0 0.00 0.00 0.15 81 1013.7
20260506161252 57 0.0 0.0 0.00 0.00 0.15 81 1013.9
20260506155752 57 0.0 0.0 0.00 0.00 0.15 81 1014.1
20260506154252 57 0.0 0.0 0.00 0.00 0.15 81 1014.0
20260506152752 57 0.0 0.0 0.00 0.00 0.15 81 1014.0
20260506151252 56 0.0 0.0 0.00 0.00 0.15 81 1014.1
20260506145752 55 0.0 0.0 0.02 0.00 0.15 81 1014.2
20260506144252 54 0.0 0.0 0.02 0.00 0.15 81 1014.7
20260506142752 54 0.0 0.0 0.03 0.00 0.15 81 1014.8
20260506141252 54 0.0 0.0 0.05 0.00 0.15 81 1015.1
20260506135751 53 0.0 0.0 0.06 0.00 0.14 80 1015.0
20260506134252 53 0.0 0.0 0.06 0.00 0.13 80 1015.3
20260506132752 53 0.0 0.0 0.07 0.00 0.13 80 1015.4
20260506131252 53 0.0 0.0 0.05 0.00 0.09 80 1015.6
20260506124810 56 0.0 0.0 0.01 0.00 0.06 80 1014.2
20260506123310 56 0.0 0.0 0.01 0.00 0.06 80 1014.2
20260506121811 58 0.0 0.0 0.00 0.00 0.05 78 1013.5
20260506120311 59 0.0 0.0 0.00 0.00 0.05 79 1012.6
20260506114810 59 0.0 0.0 0.00 0.00 0.05 80 1012.7
20260506113310 58 0.0 0.0 0.00 0.00 0.05 80 1012.8
20260506111810 58 0.0 0.0 0.00 0.00 0.05 80 1013.0
20260506110310 57 0.0 0.0 0.00 0.00 0.05 80 1013.4
20260506104810 56 0.0 0.0 0.00 0.00 0.05 80 1013.6
20260506103310 56 0.0 0.0 0.00 0.00 0.05 81 1013.5
20260506101810 56 0.0 0.0 0.00 0.00 0.05 81 1013.5
20260506100311 56 0.0 0.0 0.00 0.00 0.05 81 1013.0
20260506094811 57 0.0 0.0 0.00 0.00 0.05 81 1012.9
20260506093311 57 0.0 0.0 0.00 0.00 0.04 81 1013.1
20260506091811 57 0.0 0.0 0.00 0.00 0.04 81 1013.0
20260506090311 57 0.0 0.0 0.00 0.00 0.04 81 1012.8
20260506084810 56 0.0 0.0 0.00 0.00 0.04 81 1012.9
20260506083311 56 0.0 0.0 0.00 0.00 0.04 81 1013.3
20260506081811 55 0.0 0.0 0.00 0.00 0.04 81 1013.3
20260506080310 55 0.0 0.0 0.00 0.00 0.04 81 1013.4
20260506073310 54 0.0 0.0 0.00 0.00 0.04 81 1013.5
20260506071811 54 0.0 0.0 0.00 0.00 0.04 81 1013.6
20260506070311 55 0.0 0.0 0.00 0.00 0.04 81 1013.6
20260506061811 55 0.0 0.0 0.00 0.00 0.04 81 1014.3
20260506060311 55 0.0 0.0 0.00 0.00 0.04 81 1014.3
20260506050311 54 0.0 0.0 0.00 0.00 0.04 81 1014.7
20260506044812 55 0.0 0.0 0.00 0.00 0.04 81 1014.7
20260506043310 55 0.0 0.0 0.01 0.00 0.04 81 1014.6
20260506041811 55 0.0 0.0 0.03 0.00 0.04 81 1014.8